Weather History for KLWS - September, 2013

Change the Weather History Date:

Thursday, September 26, 2013

  Actual Average Record
Temperature  
Mean Temperature 55 °F 60 °F  
Max Temperature 63 °F 73 °F 94 °F (1914)
Min Temperature 47 °F 47 °F 30 °F (1934)
Degree Days  
Heating Degree Days 10 6  
Month to date heating degree days 50 73  
Since 1 July heating degree days 50 88  
Cooling Degree Days 0 1  
Month to date cooling degree days 184 84  
Year to date cooling degree days 1178 801  
Growing Degree Days 4 (Base 50)    
Moisture  
Dew Point 43 °F    
Average Humidity 65    
Maximum Humidity 93    
Minimum Humidity 36    
Precipitation  
Precipitation T in 0.02 in 1.07 in (1905)
Month to date precipitation 1.42 0.57  
Year to date precipitation 7.81 9.10  
Snow  
Snow 0.00 in 0.00 in 0.00 in (1998)
Month to date snowfall 0.0 0.0  
Since 1 July snowfall 0.0 0.0  
Since 1 September snowfall 0.0 0.0  
Snow Depth 0.00 in    
Sea Level Pressure  
Sea Level Pressure 29.96 in    
Wind  
Wind Speed 4 mph (West)    
Max Wind Speed 14 mph    
Max Gust Speed 17 mph    
Visibility 10 miles    
Events      
T = Trace of Precipitation, MM = Missing Value Source: NWS Daily Summary

Daily Weather History Graph

Daily Weather History Graph

Search for Another Location

Airport or City:

Trip Planner

Search our weather history database for the weather conditions in past years. The results will help you decide how hot, cold, wet, or windy it might be!

Date:

Astronomy

Sep. 26, 2013 Rise Set
Actual Time 6:40 AM PDT 6:37 PM PDT
Civil Twilight 6:10 AM PDT 7:07 PM PDT
Nautical Twilight 5:35 AM PDT 7:42 PM PDT
Astronomical Twilight 4:59 AM PDT 8:17 PM PDT
Moon 11:22 PM PDT (9/26) 1:53 PM PDT (9/26)
Length of Visible Light 12h 56m
Length of Day
11h 56m
Waning Gibbous, 53% of the Moon is Illuminated
Sep 26
Waning Gibbous
Sep 26
Last Quarter
Oct 4
New
Oct 11
First Quarter
Oct 18
Full

Hourly Weather History & Observations

Time (PDT) Temp. Dew Point Humidity Pressure Visibility Wind Dir Wind Speed Gust Speed Precip Events Conditions
12:56 AM 51.1 °F 48.9 °F 92% 29.86 in 10.0 mi SW 5.8 mph - 0.01 in   Overcast
1:56 AM 51.1 °F 48.0 °F 89% 29.86 in 10.0 mi West 4.6 mph - 0.00 in   Overcast
2:56 AM 50.0 °F 46.9 °F 89% 29.87 in 10.0 mi West 5.8 mph - N/A   Overcast
3:56 AM 48.9 °F 46.0 °F 90% 29.88 in 10.0 mi West 3.5 mph - N/A   Mostly Cloudy
4:56 AM 48.9 °F 46.0 °F 90% 29.89 in 10.0 mi West 5.8 mph - N/A   Overcast
5:56 AM 48.9 °F 45.0 °F 86% 29.91 in 10.0 mi Calm Calm - N/A   Mostly Cloudy
6:56 AM 46.9 °F 44.1 °F 90% 29.93 in 10.0 mi Calm Calm - N/A   Scattered Clouds
7:56 AM 48.0 °F 45.0 °F 89% 29.95 in 10.0 mi ESE 5.8 mph - N/A   Mostly Cloudy
8:56 AM 50.0 °F 45.0 °F 83% 29.96 in 10.0 mi SE 3.5 mph - N/A   Mostly Cloudy
9:56 AM 52.0 °F 46.0 °F 80% 29.97 in 10.0 mi Variable 3.5 mph - N/A   Overcast
10:56 AM 55.0 °F 46.0 °F 72% 29.97 in 10.0 mi Calm Calm - N/A   Scattered Clouds
11:56 AM 57.0 °F 45.0 °F 64% 29.97 in 10.0 mi Calm Calm - N/A   Partly Cloudy
12:56 PM 61.0 °F 43.0 °F 52% 29.96 in 10.0 mi NNE 3.5 mph - N/A   Clear
1:56 PM 63.0 °F 37.9 °F 40% 29.95 in 10.0 mi Calm Calm - N/A   Mostly Cloudy
2:56 PM 61.0 °F 37.0 °F 41% 29.95 in 10.0 mi West 3.5 mph - N/A   Overcast
3:56 PM 62.1 °F 39.0 °F 43% 29.96 in 10.0 mi West 5.8 mph - 0.00 in   Overcast
4:56 PM 62.1 °F 36.0 °F 38% 29.96 in 10.0 mi WNW 6.9 mph - N/A   Overcast
5:56 PM 60.1 °F 39.9 °F 47% 29.98 in 10.0 mi WNW 11.5 mph - N/A   Overcast
6:56 PM 57.9 °F 39.9 °F 51% 29.99 in 10.0 mi WNW 11.5 mph - N/A   Overcast
7:56 PM 57.9 °F 39.9 °F 51% 30.01 in 10.0 mi NW 10.4 mph - N/A   Overcast
8:56 PM 55.9 °F 41.0 °F 57% 30.03 in 10.0 mi SW 6.9 mph - N/A   Overcast
9:56 PM 54.0 °F 39.9 °F 59% 30.03 in 10.0 mi Calm Calm - N/A   Clear
10:56 PM 51.1 °F 41.0 °F 68% 30.03 in 10.0 mi SSE 3.5 mph - N/A   Clear
11:56 PM 50.0 °F 39.9 °F 68% 30.04 in 10.0 mi South 5.8 mph - N/A   Clear